{"data":{"norad_id":58807,"epoch":"2026-09-20T22:48:54.065664Z","epoch_age_seconds":113599,"freshness":"FRESH","line1":"1 58807U 24012W   26263.95062576  .00028853  00000+0  10275-2 0  9998","line2":"2 58807  43.0000 142.0757 0002528 228.8173 131.2461 15.28410540151107","mean_motion":15.2841054,"eccentricity":0.0002528,"inclination_deg":43,"raan_deg":142.0757,"arg_perigee_deg":228.8173,"mean_anomaly_deg":131.2461,"bstar":0.0010275,"rev_number":15110,"period_min":94.215524056776,"perigee_km":478.82940729961,"apogee_km":482.29716616458,"semimajor_km":6858.7002867321,"source":"CELESTRAK","updated_at":"2026-09-21T09:00:33.982077Z"}}